{"data":{"norad_id":56810,"epoch":"2026-05-25T03:27:44.777664Z","epoch_age_seconds":55854,"freshness":"FRESH","line1":"1 56810U 23078AV  26145.14426826 -.00000145  00000+0 -43761-5 0  9998","line2":"2 56810  69.9984 151.6356 0003741 266.8168  93.2563 14.98330560164138","mean_motion":14.9833056,"eccentricity":0.0003741,"inclination_deg":69.9984,"raan_deg":151.6356,"arg_perigee_deg":266.8168,"mean_anomaly_deg":93.2563,"bstar":-4.3761e-6,"rev_number":16413,"period_min":96.10696320577,"perigee_km":569.4540926785,"apogee_km":574.6542257038,"semimajor_km":6950.1911591912,"source":"CELESTRAK","updated_at":"2026-05-25T13:38:18.160168Z"}}